Regional Weather Roundup
Issued by NWS

Home | Current Version | Previous Version | Graphics & Text | Print | Product List | Glossary On
Versions: 1 2 3 4 5 6 7 8 9 10 11 12 13 14 15 16 17 18 19 20 21 22 23 24 25 26 27 28 29 30 31 32 33 34 35 36 37 38 39 40 41 42 43 44 45 46 47 48 49 50
000
ASUS43 KDMX 232003
RWRIA

WEATHER ROUNDUP FOR IOWA
NATIONAL WEATHER SERVICE DES MOINES IA
300 PM CDT SAT JUL 23 2016

NOTE: "FAIR" INDICATES FEW OR NO CLOUDS BELOW 12,000 FEET WITH NO
SIGNIFICANT WEATHER AND/OR OBSTRUCTIONS TO VISIBILITY.

* - THESE STATIONS ARE NOT NWS STATIONS...THUS NOT UNDER NWS
QUALITY CONTROL.  THEY ALSO DO NOT REPORT WEATHER SUCH
AS PRECIPITATION OR FOG.

IAZ001>003-012>014-020>022-031>034-043>046-232100-
   NORTHWEST IOWA

CITY           SKY/WX    TMP DP  RH WIND       PRES   REMARKS
CARROLL *      MOSUNNY   86  77  74 S13G24    29.83F HX  97
CHEROKEE *     MOSUNNY   87  77  74 S13       29.82S HX  98
DENISON *      CLOUDY    86  75  70 S13G20    29.82R HX  95
LE MARS *      SUNNY     90  79  70 S13G21    29.79F HX 105
SHELDON *      CLOUDY    86  79  79 S13G21    29.79F HX  99
SIOUX CITY     SUNNY     93  76  57 S14       29.78S HX 105
SPENCER        CLOUDY    85  75  72 S16G24    29.82F HX  93
STORM LAKE *     N/A     84  77  79 S13G21    29.84F HX  94
$$

IAZ055>058-069>071-079>083-090>094-232100-
   SOUTHWEST IOWA

CITY           SKY/WX    TMP DP  RH WIND       PRES   REMARKS
ATLANTIC *     CLOUDY    88  77  70 S13G18    29.85F HX 100
CLARINDA *       N/A     86  79  79 MISG      29.87F HX  99
COUNCIL BLFS * CLOUDY    90  75  62 S13       29.84S HX 100
CRESTON *      CLOUDY    86  79  79 S10       29.89F HX  99
HARLAN  *      CLOUDY    84  77  79 S8G17     29.86F HX  94
LAMONI         CLOUDY    89  79  72 S9        29.89R HX 104
RED OAK *      CLOUDY    90  79  70 S12       29.85F HX 105
SHENANDOAH *   CLOUDY    86  81  84 S9        29.84F HX 102
$$

IAZ047>049-059>061-072>074-084-232100-
   CENTRAL IOWA

CITY           SKY/WX    TMP DP  RH WIND       PRES   REMARKS
AMES           LGT RAIN  86  81  85 SE7       29.84F HX 102
ANKENY *         N/A    N/A N/A N/A MISG        N/A
BOONE *        CLOUDY    84  79  84 SE6G13    29.84F HX  96
CHARITON *       N/A    N/A N/A N/A MISG        N/A
DES MOINES     CLOUDY    89  79  72 S8        29.84F HX 104
GRINNELL*      CLOUDY    86  79  78 SW5       29.88F HX  99
KNOXVILLE *    CLOUDY    88  81  79 S5        29.85F HX 105
MARSHALLTOWN   LGT RAIN  85  82  91 S6        29.85F HX 102
NEWTON *       CLOUDY    84  84 100 S5        29.85F HX 104
PELLA *        LGT RAIN  88  80  77 CALM      29.87F HX 103
PERRY *          N/A     85  81  87 SE6       29.86F HX 102
$$

IAZ004>006-015-016-023>025-035-036-232100-
   NORTH CENTRAL IOWA

CITY           SKY/WX    TMP DP  RH WIND       PRES   REMARKS
ALGONA *       CLOUDY    81  77  89 S15       29.84S HX  88
ESTHERVILLE    CLOUDY    83  76  79 S17G28    29.82F HX  91
FORT DODGE *   CLOUDY    82  79  89 SE12      29.84F HX  93
MASON CITY     CLOUDY    77  74  90 SE13      29.87R
FOREST CITY *  PTSUNNY   77  75  94 SE16      29.84R
IOWA FALLS *   LGT RAIN  84  78  82 SE5       29.86F HX  96
$$

IAZ007>011-017>019-026>030-037>042-050>054-066-232100-
   NORTHEAST IOWA

CITY           SKY/WX    TMP DP  RH WIND       PRES   REMARKS
CEDAR RAPIDS   CLOUDY    88  83  85 SE12      29.86F HX 109
CHARLES CITY * CLOUDY    73  73 100 E16       29.90F
CLINTON *      CLOUDY    87  80  79 SE14      29.91F HX 103
DECORAH *      HVY RAIN  70  70 100 SE9       29.99R VSB 1
DUBUQUE        CLOUDY    77  71  82 E10       29.94F
MONTICELLO *   CLOUDY    82  77  83 NE7G15    29.91R HX  91
OELWEIN *      HVY RAIN  72  70  94 N16G24    29.96R VSB 1
WATERLOO       CLOUDY    77  74  90 NE14G25   29.87F THUNDER
$$

IAZ064-065-067-068-078-232100-
   EAST CENTRAL IOWA

CITY           SKY/WX    TMP DP  RH WIND       PRES   REMARKS
DAVENPORT      CLOUDY    88  79  74 SE12      29.91F HX 103
IOWA CITY      MOSUNNY   91  82  75 SE14G23   29.87F HX 113
MT. PLEASANT * CLOUDY    94  82  66 SE10G16   29.89F HX 116
MUSCATINE *    CLOUDY    93  79  62 S15       29.87F HX 110
QUAD CITIES    CLOUDY    90  80  72 SE10      29.90F HX 107
$$

IAZ062-063-075>077-085>089-095>099-232100-
   SOUTHEAST IOWA

CITY           SKY/WX    TMP DP  RH WIND       PRES   REMARKS
BURLINGTON     CLOUDY    91  82  75 S12       29.91F HX 113
FAIRFIELD *    SUNNY     91  77  62 S10G17    29.88F HX 105
KEOKUK *       MOSUNNY   93  81  66 S8        29.91F HX 113
CENTERVILLE *    N/A     91  73  55 S9G16     29.90F HX 100
OTTUMWA        CLOUDY    91  79  67 S14       29.86F HX 107
WASHINGTON *   SUNNY     90  81  74 S13       29.88F HX 108
$$

ABBREVIATIONS USED IN REMARKS
   TC - TEMPERATURES IN CELSIUS
  WCI - WIND CHILL INDEX
   HX - HEAT INDEX
  VSB - VISIBILITY
$$





USA.gov is the U.S. government's official web portal to all federal, state and local government web resources and services.